The Villages, FL

11:04 AM EDT on April 25, 2018 (GMT -0400)
The Villages

Weather History for KVVG - March, 2013

Change the Weather History Date:

Sunday, March 3, 2013

  Actual Average (KLEE) Record (KLEE)
Temperature  
Mean Temperature 42 °F -  
Max Temperature 50 °F 75 °F 88 °F (1964)
Min Temperature 35 °F 50 °F 25 °F (1980)
Degree Days  
Heating Degree Days 22    
Moisture  
Dew Point 29 °F    
Average Humidity 59    
Maximum Humidity 81    
Minimum Humidity 43    
Precipitation  
Precipitation 0.00 in - - ()
Sea Level Pressure  
Sea Level Pressure 30.07 in    
Wind  
Wind Speed 8 mph (WNW)    
Max Wind Speed 20 mph    
Max Gust Speed 30 mph    
Visibility 10 miles    
Events      
Averages and records for this station are not official NWS values.
T = Trace of Precipitation, MM = Missing Value Source: NWS Daily Summary

Daily Weather History Graph

Daily Weather History Graph

Search for Another Location

Airport or City:

Astronomy

Mar. 03, 2013 Rise Set
Actual Time 6:50 AM EST 6:28 PM EST
Civil Twilight 6:26 AM EST 6:52 PM EST
Nautical Twilight 5:59 AM EST 7:19 PM EST
Astronomical Twilight 5:31 AM EST 7:47 PM EST
Moon No Moon Rise 10:35 AM EST (3/3)
Length of Visible Light 12h 25m
Length of Day
11h 38m
Waning Gibbous, 64% of the Moon is Illuminated
Mar 3
Waning Gibbous
Mar 4
Last Quarter
Mar 11
New
Mar 19
First Quarter
Mar 27
Full

Hourly Weather History & Observations

Time (EST) Temp. Windchill Dew Point Humidity Pressure Visibility Wind Dir Wind Speed Gust Speed Precip Events Conditions
12:15 AM 42.8 °F 38.6 °F 28.4 °F 57% 30.04 in 10.0 mi NNW 6.9 mph - N/A   Unknown
12:35 AM 42.8 °F 38.0 °F 28.4 °F 57% 30.04 in 10.0 mi NNW 8.1 mph - N/A   Unknown
12:55 AM 41.0 °F 37.1 °F 28.4 °F 61% 30.05 in 10.0 mi NW 5.8 mph - N/A   Unknown
1:15 AM 39.2 °F - 28.4 °F 65% 30.05 in 10.0 mi Calm Calm - N/A   Unknown
1:35 AM 39.2 °F 35.0 °F 28.4 °F 65% 30.05 in 10.0 mi WNW 5.8 mph - N/A   Unknown
1:55 AM 39.2 °F 35.0 °F 28.4 °F 65% 30.04 in 10.0 mi WNW 5.8 mph - N/A   Unknown
2:15 AM 39.2 °F 33.6 °F 28.4 °F 65% 30.04 in 10.0 mi NW 8.1 mph - N/A   Unknown
2:55 AM 39.2 °F 34.2 °F 28.4 °F 65% 30.02 in 10.0 mi NNW 6.9 mph - N/A   Unknown
3:15 AM 37.4 °F - 28.4 °F 70% 30.03 in 10.0 mi Calm Calm - N/A   Unknown
3:35 AM 37.4 °F - 28.4 °F 70% 30.04 in 10.0 mi Calm Calm - N/A   Unknown
3:55 AM 37.4 °F 32.1 °F 28.4 °F 70% 30.03 in 10.0 mi WNW 6.9 mph - N/A   Unknown
4:35 AM 35.6 °F - 28.4 °F 75% 30.03 in 10.0 mi Calm Calm - N/A   Unknown
4:55 AM 37.4 °F 33.8 °F 28.4 °F 70% 30.04 in 10.0 mi WNW 4.6 mph - N/A   Unknown
5:15 AM 37.4 °F 31.4 °F 30.2 °F 75% 30.04 in 10.0 mi NW 8.1 mph - N/A   Unknown
5:35 AM 37.4 °F 31.4 °F 30.2 °F 75% 30.04 in 10.0 mi WNW 8.1 mph - N/A   Unknown
6:35 AM 37.4 °F 31.4 °F 30.2 °F 75% 30.05 in 10.0 mi NNW 8.1 mph - N/A   Unknown
6:55 AM 39.2 °F 33.0 °F 30.2 °F 70% 30.06 in 10.0 mi NW 9.2 mph - N/A   Unknown
7:15 AM 39.2 °F 35.9 °F 30.2 °F 70% 30.06 in 10.0 mi NW 4.6 mph - N/A   Unknown
7:55 AM 39.2 °F 34.2 °F 30.2 °F 70% 30.08 in 9.0 mi NW 6.9 mph - N/A   Unknown
8:15 AM 39.2 °F 33.0 °F 30.2 °F 70% 30.07 in 9.0 mi NNW 9.2 mph - N/A   Unknown
8:35 AM 41.0 °F 33.9 °F 28.4 °F 61% 30.07 in 9.0 mi NNW 12.7 mph 17.3 mph N/A   Unknown
8:55 AM 42.8 °F 38.6 °F 28.4 °F 57% 30.08 in 10.0 mi NNW 6.9 mph 16.1 mph N/A   Unknown
9:15 AM 42.8 °F 37.5 °F 28.4 °F 57% 30.08 in 10.0 mi NW 9.2 mph - N/A   Unknown
9:35 AM 42.8 °F 35.8 °F 28.4 °F 57% 30.09 in 10.0 mi NW 13.8 mph 18.4 mph N/A   Unknown
9:55 AM 44.6 °F 37.8 °F 26.6 °F 49% 30.09 in 10.0 mi NW 15.0 mph 20.7 mph N/A   Unknown
10:15 AM 44.6 °F 37.4 °F 26.6 °F 49% 30.09 in 9.0 mi NW 16.1 mph 23.0 mph N/A   Unknown
10:35 AM 44.6 °F 38.1 °F 26.6 °F 49% 30.09 in 10.0 mi NW 13.8 mph 19.6 mph N/A   Unknown
10:55 AM 46.4 °F 39.5 °F 26.6 °F 46% 30.08 in 9.0 mi WNW 17.3 mph 20.7 mph N/A   Unknown
11:15 AM 46.4 °F 39.5 °F 26.6 °F 46% 30.08 in 10.0 mi NW 17.3 mph 23.0 mph N/A   Unknown
11:35 AM 46.4 °F 40.1 °F 26.6 °F 46% 30.08 in 8.0 mi NW 15.0 mph 21.9 mph N/A   Unknown
11:55 AM 46.4 °F 40.1 °F 26.6 °F 46% 30.08 in 10.0 mi NW 15.0 mph 25.3 mph N/A   Unknown
12:15 PM 46.4 °F 40.7 °F 26.6 °F 46% 30.07 in 10.0 mi WNW 12.7 mph 19.6 mph N/A   Unknown
12:35 PM 48.2 °F - 26.6 °F 43% 30.06 in 10.0 mi WNW 12.7 mph 19.6 mph N/A   Unknown
12:55 PM 48.2 °F - 28.4 °F 46% 30.05 in 10.0 mi West 13.8 mph 23.0 mph N/A   Unknown
1:15 PM 48.2 °F - 28.4 °F 46% 30.04 in 9.0 mi WNW 17.3 mph 24.2 mph N/A   Unknown
1:55 PM 48.2 °F - 28.4 °F 46% 30.03 in 9.0 mi West 18.4 mph 23.0 mph N/A   Unknown
2:15 PM 48.2 °F - 28.4 °F 46% 30.03 in 10.0 mi West 12.7 mph 25.3 mph N/A   Unknown
2:35 PM 50.0 °F - 28.4 °F 43% 30.03 in 10.0 mi West 19.6 mph 29.9 mph N/A   Unknown
2:55 PM 50.0 °F - 28.4 °F 43% 30.03 in 10.0 mi WNW 16.1 mph 23.0 mph N/A   Unknown
3:15 PM 50.0 °F - 28.4 °F 43% 30.02 in 9.0 mi West 17.3 mph 23.0 mph N/A   Unknown
3:55 PM 48.2 °F - 28.4 °F 46% 30.03 in 10.0 mi WNW 13.8 mph 21.9 mph N/A   Unknown
4:15 PM 50.0 °F - 28.4 °F 43% 30.03 in 10.0 mi West 11.5 mph 16.1 mph N/A   Unknown
4:35 PM 50.0 °F - 28.4 °F 43% 30.03 in 10.0 mi West 15.0 mph 21.9 mph N/A   Unknown
4:55 PM 48.2 °F - 28.4 °F 46% 30.03 in 10.0 mi West 13.8 mph 18.4 mph N/A   Unknown
5:15 PM 48.2 °F - 28.4 °F 46% 30.04 in 9.0 mi West 10.4 mph 18.4 mph N/A   Unknown
5:35 PM 48.2 °F - 28.4 °F 46% 30.04 in 10.0 mi West 8.1 mph - N/A   Unknown
5:55 PM 46.4 °F 42.4 °F 28.4 °F 50% 30.05 in 10.0 mi West 8.1 mph - N/A   Unknown
6:15 PM 46.4 °F 42.9 °F 28.4 °F 50% 30.06 in 10.0 mi West 6.9 mph - N/A   Unknown
6:35 PM 44.6 °F 40.2 °F 28.4 °F 53% 30.07 in 10.0 mi WSW 8.1 mph - N/A   Unknown
6:55 PM 44.6 °F 40.2 °F 28.4 °F 53% 30.09 in 10.0 mi WSW 8.1 mph - N/A   Unknown
7:35 PM 42.8 °F 39.3 °F 30.2 °F 61% 30.10 in 10.0 mi West 5.8 mph - N/A   Unknown
7:55 PM 41.0 °F 36.4 °F 30.2 °F 65% 30.12 in 10.0 mi West 6.9 mph - N/A   Unknown
8:15 PM 41.0 °F 38.0 °F 30.2 °F 65% 30.12 in 10.0 mi West 4.6 mph - N/A   Unknown
8:35 PM 39.2 °F - 30.2 °F 70% 30.13 in 10.0 mi Calm Calm - N/A   Unknown
8:55 PM 39.2 °F 33.6 °F 30.2 °F 70% 30.14 in 10.0 mi West 8.1 mph - N/A   Unknown
9:15 PM 39.2 °F 35.0 °F 30.2 °F 70% 30.15 in 10.0 mi West 5.8 mph - N/A   Unknown
9:55 PM 39.2 °F - 30.2 °F 70% 30.16 in 10.0 mi Calm Calm - N/A   Unknown
10:35 PM 37.4 °F - 30.2 °F 75% 30.17 in 10.0 mi Calm Calm - N/A   Unknown
10:55 PM 37.4 °F - 30.2 °F 75% 30.17 in 10.0 mi Calm Calm - N/A   Unknown
11:15 PM 35.6 °F - 30.2 °F 81% 30.17 in 10.0 mi Calm Calm - N/A   Unknown
11:35 PM 35.6 °F - 30.2 °F 81% 30.17 in 10.0 mi Calm Calm - N/A   Unknown
11:55 PM 35.6 °F - 30.2 °F 81% 30.18 in 10.0 mi Calm Calm - N/A   Unknown